[[{"header":{"parameterUnit":"m.s-1","parameterCategory":2,"la1":30.2991,"la2":30.254,"lo1":-89.0895,"lo2":-89.0444,"dy":0.0017,"dx":0.0017,"nx":28,"ny":28,"refTime":"2025-06-09T21:00:00:Z","depth":"0","parameterNumber":2,"parameterNumberName":"U-component_of_CURRENTS"},"data":[0,0,0,0,0,0,0,0,0,0,0,0,0,0,0,0,0,0,0,0,0,0,0,0,0,0,0,0,0,0,0,0,0,0,0,0,0,0,0,0,0,0,0,0,0,0,0,0,0,0,0,0,0,0,0,0,0,0,0.1307,0.1308,0,0.137,0.1371,0.1371,0.1276,0.1273,0.127,0.1267,0.125,0.1253,0.1255,0,0,0,0,0,0,0,0,0,0,0,0,0,0.1215,0.1216,0.1307,0.1308,0.1309,0.137,0.1371,0.1371,0.1277,0.1273,0.1269,0.1265,0.1249,0.1252,0.1255,0,0,0,0,0,0,0,0,0,0,0,0,0,0.1263,0.1217,0.1307,0.127,0.1267,0.137,0.1371,0.1372,0.1278,0.1273,0.1268,0.1263,0.1248,0.1252,0.1256,0.1376,0,0,0.1267,0.1269,0,0,0,0,0,0,0,0,0.126,0.1266,0.1275,0.1273,0.127,0.1311,0.1332,0.1369,0.1279,0.1273,0.1267,0.1261,0.1268,0.127,0.1292,0.1375,0.1374,0.1268,0.127,0.1272,0.1273,0,0,0,0,0,0,0,0.1257,0.1264,0.1331,0.1276,0.1273,0.1288,0.1288,0.134,0.1294,0.1273,0.1266,0.1277,0.1265,0.1288,0.129,0.1374,0.1268,0.1271,0.1273,0.1275,0.1518,0.1522,0,0,0,0,0,0,0.1252,0.1261,0.1329,0.1333,0.1254,0.1293,0.1293,0.1302,0.1295,0.129,0.1281,0.1272,0.1284,0.1286,0.1289,0.1457,0.1272,0.1275,0.1278,0.1513,0.1519,0.1523,0,0,0,0,0,0,0.1249,0.1257,0.1326,0.1299,0.1308,0.1299,0.131,0.1306,0.1313,0.1302,0.1294,0.1289,0.128,0.1284,0.1311,0.1453,0.1277,0.1281,0.1509,0.1515,0.1521,0.1775,0,0,0,0,0,0,0.1247,0.1256,0.1265,0.1299,0.131,0.1404,0.1315,0.1311,0.1328,0.1317,0.1309,0.1302,0.1277,0.1306,0.1315,0.1455,0.1284,0.1503,0.1511,0.1519,0.1761,0.1789,0.1813,0,0,0,0,0,0.1243,0.1289,0.1266,0.1274,0.1321,0.1407,0.1416,0.1391,0.1333,0.1372,0.1331,0.1302,0.1362,0.1311,0.1321,0.1467,0.15,0.1509,0.1518,0.175,0.1784,0.1812,0,0,0,0,0,0,0.1255,0.1285,0.1259,0.1309,0.1356,0.1391,0.1439,0.1407,0.1413,0.1398,0.1343,0.1338,0.143,0.1398,0.1343,0.1555,0.1435,0.1447,0.1608,0.1639,0.1665,0.1659,0.1287,0,0,0,0,0,0.1265,0.1306,0.1335,0.1382,0.1415,0.1425,0.1454,0.1446,0.1456,0.1452,0.1447,0.1448,0.1491,0.1511,0.1543,0.1654,0.1594,0.1754,0.178,0.1802,0.1803,0.1861,0.1893,0.1554,0.1554,0.1553,0,0,0.1279,0.1308,0.1325,0.1389,0.1428,0.1518,0.1432,0.1509,0.1571,0.1457,0.1545,0.1544,0.1534,0.1656,0.1698,0.164,0.1859,0.1814,0.1834,0.1821,0.1875,0.1908,0.1937,0.156,0.1559,0.1558,0,0,0.1395,0.137,0.1468,0.1514,0.1589,0.1601,0.1623,0.1678,0.1685,0.1767,0.1711,0.1772,0.1831,0.187,0.1887,0.2075,0.1993,0.21,0.2241,0.23,0.2328,0.2353,0.228,0.2296,0.2117,0.2117,0.2118,0,0.1414,0.1524,0.1514,0.1632,0.167,0.1642,0.1753,0.1791,0.184,0.1867,0.182,0.1941,0.1946,0.2085,0.2149,0.2145,0.2098,0.213,0.2336,0.2359,0.2379,0.2299,0.2313,0.213,0.2129,0.2128,0.2126,0,0.1627,0.1691,0.1765,0.1879,0.1921,0.2019,0.2048,0.2096,0.2089,0.2118,0.224,0.2255,0.2305,0.2364,0.2313,0.2492,0.2381,0.2363,0.226,0.2429,0.2332,0.2342,0.215,0.2145,0.2141,0.2138,0,0,0.172,0.1878,0.1898,0.1947,0.2045,0.209,0.2207,0.2294,0.2338,0.2427,0.2512,0.2641,0.262,0.2636,0.2624,0.2693,0.2802,0.2597,0.2594,0.2525,0.2835,0.2569,0.2552,0.2825,0.2829,0.2833,0.2693,0,0.1889,0.2104,0.2139,0.229,0.2383,0.2363,0.2449,0.2506,0.2541,0.262,0.2681,0.276,0.2734,0.2759,0.2844,0.2798,0.2847,0.2834,0.2677,0.2669,0.2418,0.2564,0.2459,0.2311,0.2702,0.2703,0.2704,0,0.2104,0.2191,0.2376,0.2439,0.2475,0.2541,0.2594,0.2673,0.2768,0.2795,0.2898,0.2908,0.3022,0.2971,0.3016,0.3,0.2943,0.2909,0.2903,0.2572,0.2426,0.2213,0.2313,0.229,0.2718,0.2717,0.2716,0,0.2167,0.2344,0.2463,0.2499,0.259,0.2624,0.2654,0.2731,0.2773,0.2895,0.2925,0.3057,0.3066,0.3104,0.3002,0.3026,0.2985,0.3005,0.2711,0.2685,0.2517,0.2469,0.2579,0.3063,0.3063,0.3063,0.3064,0,0.2331,0.2416,0.2484,0.2535,0.2617,0.2654,0.2734,0.278,0.2855,0.2904,0.2999,0.3036,0.3105,0.3071,0.3031,0.2842,0.2999,0.2736,0.2664,0.2591,0.2554,0.2455,0.2423,0.3058,0.3059,0.306,0.3061,0,0.2414,0.2486,0.2587,0.2646,0.2658,0.27,0.274,0.2788,0.2846,0.2907,0.2941,0.3008,0.2927,0.2901,0.2879,0.2793,0.2594,0.2592,0.2416,0.2327,0.2029,0.2011,0.1847,0.1813,0.228,0.2273,0.2268,0,0.2503,0.2565,0.2615,0.2642,0.2669,0.2717,0.2742,0.279,0.2816,0.2863,0.2878,0.2831,0.2749,0.2554,0.2422,0.2245,0.2278,0.2038,0.2106,0.1997,0.193,0.1896,0.1885,0.1972,0.1964,0.1958,0.1953,0,0.2608,0.2603,0.2653,0.2687,0.2712,0.2722,0.2741,0.2739,0.2767,0.2774,0.2702,0.2637,0.2413,0.2178,0.1926,0.184,0.1933,0.1892,0.1913,0.1792,0.1639,0.1574,0.199,0.1896,0.1902,0.1906,0.1909,0.1911,0.2656,0.2689,0.2716,0.2722,0.2738,0.2677,0.2603,0.2593,0.2551,0.2419,0.2471,0.224,0.2049,0.1669,0.1568,0.1345,0.1423,0.1332,0.1336,0.1326,0.126,0.1448,0.119,0.1191,0.1192,0.1194,0.1195,0,0.2718,0.2726,0.2741,0.2712,0.2633,0.2643,0.2557,0.241,0.2245,0.2149,0.2,0.1699,0.1441,0.1282,0.1034,0.0897,0.0942,0.0852,0.0921,0.096,0.1258,0.1216,0.0793,0.0793,0.0793,0.0793,0.0793,0.0793,0.2772,0.2783,0.2735,0.2584,0.2517,0.2311,0.2187,0.2001,0.1858,0.1541,0.1311,0.12,0.1104,0.0878,0.0692,0.065,0.0678,0.0499,0.0583,0.0929,0.0982,0.1032,0.0997,0.0534,0.0534,0.032,0.0318,0.0316]},{"header":{"parameterUnit":"m.s-1","parameterCategory":2,"la1":30.2991,"la2":30.254,"lo1":-89.0895,"lo2":-89.0444,"dy":0.0017,"dx":0.0017,"nx":28,"ny":28,"refTime":"2025-06-09T21:00:00:Z","depth":"0","parameterNumber":3,"parameterNumberName":"V-component_of_CURRENTS"},"data":[0,0,0,0,0,0,0,0,0,0,0,0,0,0,0,0,0,0,0,0,0,0,0,0,0,0,0,0,0,0,0,0,0,0,0,0,0,0,0,0,0,0,0,0,0,0,0,0,0,0,0,0,0,0,0,0,0,0,0.0073,0.0073,0,0.0108,0.0108,0.0109,0.0118,0.0118,0.0118,0.0117,0.0311,0.0316,0.0321,0,0,0,0,0,0,0,0,0,0,0,0,0,0.0033,0.0033,0.0073,0.0073,0.0073,0.0108,0.0108,0.0109,0.0118,0.0118,0.0118,0.0117,0.0309,0.0315,0.0321,0,0,0,0,0,0,0,0,0,0,0,0,0,0.0057,0.0033,0.0073,0.0082,0.0083,0.0108,0.0108,0.0109,0.0118,0.0118,0.0118,0.0117,0.0307,0.0314,0.0322,0.0378,0,0,0.0347,0.035,0,0,0,0,0,0,0,0,0.0056,0.0059,0.008,0.0082,0.0083,0.0108,0.0165,0.0207,0.0118,0.0105,0.0117,0.0117,0.0258,0.027,0.0275,0.0387,0.0395,0.0348,0.0352,0.0356,0.0358,0,0,0,0,0,0,0,0.0054,0.0057,0.0087,0.0081,0.0083,0.0092,0.0095,0.0172,0.0186,0.0106,0.0107,0.0111,0.026,0.0267,0.028,0.0398,0.0347,0.0354,0.0359,0.0362,0.0635,0.0637,0,0,0,0,0,0,0.0049,0.0056,0.0085,0.0088,0.0068,0.0092,0.0096,0.0101,0.0181,0.0192,0.0111,0.0111,0.0253,0.0271,0.0287,0.0406,0.0356,0.0363,0.0368,0.0632,0.0635,0.0638,0,0,0,0,0,0,0.0048,0.0052,0.0084,0.0072,0.0077,0.0093,0.0099,0.0101,0.0112,0.0183,0.0197,0.0119,0.0254,0.0276,0.0346,0.0412,0.0367,0.0374,0.0629,0.0633,0.0637,0.0613,0,0,0,0,0,0,0.0047,0.0051,0.0057,0.0072,0.0078,0.0091,0.0099,0.0102,0.0115,0.0115,0.0196,0.0212,0.0255,0.0334,0.0354,0.0422,0.038,0.0626,0.0631,0.0635,0.0611,0.0616,0.062,0,0,0,0,0,0.0045,0.0058,0.0057,0.006,0.0083,0.009,0.0094,0.0104,0.0115,0.0115,0.0167,0.021,0.0379,0.034,0.0364,0.0436,0.0624,0.063,0.0635,0.0609,0.0615,0.062,0,0,0,0,0,0,0.0045,0.0061,0.0059,0.0076,0.0076,0.0092,0.01,0.0108,0.0146,0.0156,0.0221,0.0242,0.0329,0.0386,0.0343,0.0531,0.0519,0.0529,0.0491,0.0498,0.0502,0.0555,0.0387,0,0,0,0,0,0.0046,0.006,0.0065,0.0077,0.0078,0.0089,0.0097,0.0101,0.0133,0.0148,0.02,0.0283,0.0372,0.043,0.0495,0.0598,0.0615,0.0668,0.0672,0.0676,0.0737,0.0793,0.0807,0.0656,0.0656,0.0656,0,0,0.0049,0.0061,0.0068,0.0078,0.0083,0.0101,0.0093,0.0102,0.0145,0.0171,0.0243,0.0284,0.0394,0.0491,0.0543,0.0551,0.0709,0.0683,0.0684,0.0746,0.08,0.0814,0.0827,0.0659,0.0659,0.0658,0,0,0.0052,0.007,0.0072,0.008,0.0086,0.0108,0.011,0.0121,0.0153,0.0208,0.0255,0.0343,0.0445,0.0554,0.0626,0.071,0.071,0.0721,0.0814,0.0864,0.0877,0.0889,0.0833,0.0841,0.0747,0.0747,0.0747,0,0.005,0.0072,0.0072,0.0078,0.0115,0.0115,0.0144,0.0175,0.021,0.0282,0.0232,0.044,0.0502,0.0704,0.072,0.0729,0.0701,0.0772,0.0867,0.088,0.0893,0.0834,0.0842,0.0746,0.0746,0.0746,0.0746,0,0.0051,0.0078,0.0085,0.0112,0.0142,0.017,0.0214,0.0259,0.0296,0.0345,0.0493,0.0554,0.0704,0.0724,0.0747,0.0904,0.0827,0.0835,0.0842,0.0906,0.0839,0.0848,0.0746,0.0746,0.0746,0.0746,0,0,0.0043,0.008,0.0087,0.0137,0.018,0.022,0.0307,0.0422,0.0532,0.0554,0.0708,0.0834,0.0861,0.0948,0.0988,0.1039,0.1047,0.097,0.0973,0.0895,0.1059,0.1008,0.1011,0.1039,0.1043,0.1046,0.0939,0,0.0055,0.0102,0.0123,0.0217,0.0269,0.0333,0.0434,0.0539,0.0624,0.0754,0.0862,0.0989,0.0952,0.1016,0.1067,0.107,0.1086,0.1071,0.1033,0.1032,0.0964,0.1029,0.103,0.0939,0.0948,0.095,0.0951,0,0.0064,0.0116,0.0194,0.0342,0.0372,0.0429,0.0648,0.0729,0.091,0.0974,0.1112,0.1161,0.1294,0.1215,0.1264,0.1234,0.1164,0.1128,0.1123,0.1118,0.1005,0.0902,0.0955,0.1,0.0965,0.0963,0.0962,0,0.0109,0.0191,0.0283,0.032,0.0452,0.0542,0.0632,0.081,0.0926,0.1114,0.1191,0.1337,0.139,0.1378,0.1295,0.1273,0.1274,0.1241,0.1125,0.1113,0.1145,0.1133,0.1245,0.1275,0.1276,0.1276,0.1276,0,0.0157,0.0239,0.0313,0.0367,0.0532,0.0598,0.0792,0.0902,0.1068,0.121,0.13,0.1407,0.1426,0.1423,0.1339,0.1251,0.1308,0.1173,0.1126,0.1124,0.1113,0.1179,0.1177,0.1272,0.1273,0.1274,0.1274,0,0.0208,0.024,0.0362,0.0496,0.0549,0.0671,0.0852,0.0992,0.111,0.1287,0.134,0.1455,0.144,0.1406,0.1361,0.1294,0.1234,0.1169,0.1111,0.1064,0.1027,0.1021,0.1071,0.1121,0.1054,0.1053,0.1052,0,0.0249,0.0301,0.0441,0.0523,0.0587,0.0752,0.0873,0.1015,0.1134,0.1306,0.1382,0.1427,0.1461,0.1366,0.1276,0.1142,0.1159,0.1055,0.108,0.1071,0.1029,0.1018,0.1058,0.1047,0.1046,0.1046,0.1045,0,0.0344,0.037,0.0466,0.0607,0.0731,0.0878,0.1027,0.1109,0.1258,0.1362,0.145,0.1479,0.1407,0.1325,0.117,0.1081,0.1113,0.1033,0.109,0.112,0.1058,0.1065,0.0985,0.1038,0.1039,0.1039,0.1039,0.104,0.0424,0.0495,0.0586,0.0728,0.085,0.0968,0.1057,0.1176,0.1306,0.1412,0.144,0.145,0.1394,0.1203,0.1116,0.1029,0.1025,0.101,0.101,0.1005,0.1081,0.0942,0.0916,0.0916,0.0916,0.0916,0.0916,0,0.053,0.0589,0.0709,0.085,0.0948,0.1005,0.1143,0.1193,0.1277,0.1373,0.1408,0.1395,0.1289,0.1209,0.1097,0.1047,0.1056,0.1027,0.1063,0.1115,0.1054,0.1088,0.1022,0.1022,0.1022,0.1022,0.1022,0.1022,0.0602,0.0707,0.0743,0.0899,0.098,0.1073,0.112,0.1177,0.1234,0.1313,0.1345,0.1378,0.1407,0.1198,0.1134,0.1108,0.1176,0.1082,0.115,0.1142,0.1143,0.1143,0.1182,0.1137,0.1137,0.1249,0.125,0.1251]}],[{"header":{"parameterUnit":"m.s-1","parameterCategory":2,"la1":30.2991,"la2":30.254,"lo1":-89.0895,"lo2":-89.0444,"dy":0.0017,"dx":0.0017,"nx":28,"ny":28,"refTime":"2025-06-09T21:00:00:Z","depth":"2","parameterNumber":2,"parameterNumberName":"U-component_of_CURRENTS"},"data":[0,0,0,0,0,0,0,0,0,0,0,0,0,0,0,0,0,0,0,0,0,0,0,0,0,0,0,0,0,0,0,0,0,0,0,0,0,0,0,0,0,0,0,0,0,0,0,0,0,0,0,0,0,0,0,0,0,0,0.1145,0.1145,0,0.1188,0.1188,0.1189,0.1112,0.1109,0.1107,0.1104,0.1091,0.1092,0.1094,0,0,0,0,0,0,0,0,0,0,0,0,0,0.1073,0.1074,0.1145,0.1145,0.1146,0.1188,0.1189,0.1189,0.1112,0.1109,0.1106,0.1103,0.109,0.1092,0.1095,0,0,0,0,0,0,0,0,0,0,0,0,0,0.1108,0.1074,0.1145,0.1113,0.1111,0.1188,0.1189,0.1189,0.1113,0.1109,0.1105,0.1102,0.1089,0.1092,0.1095,0.1188,0,0,0.1104,0.1105,0,0,0,0,0,0,0,0,0.1106,0.111,0.1117,0.1116,0.1113,0.1141,0.1158,0.1186,0.1114,0.1111,0.1104,0.11,0.1106,0.1107,0.1123,0.1188,0.1187,0.1104,0.1106,0.1107,0.1108,0,0,0,0,0,0,0,0.1103,0.1109,0.1161,0.1118,0.1116,0.1124,0.1124,0.1164,0.1127,0.1111,0.1106,0.1113,0.1103,0.112,0.1122,0.1187,0.1104,0.1107,0.1109,0.111,0.1308,0.1311,0,0,0,0,0,0,0.1101,0.1106,0.116,0.1162,0.1101,0.1128,0.1128,0.1135,0.1128,0.1124,0.1117,0.111,0.1117,0.1119,0.1121,0.128,0.1107,0.111,0.1112,0.1304,0.1309,0.1312,0,0,0,0,0,0,0.1099,0.1105,0.1158,0.1136,0.1143,0.1133,0.1142,0.1138,0.1148,0.1133,0.1126,0.1128,0.1114,0.1117,0.1136,0.1276,0.1111,0.1114,0.13,0.1306,0.1311,0.1565,0,0,0,0,0,0,0.1097,0.1104,0.1113,0.1136,0.1144,0.1202,0.1146,0.1142,0.1159,0.115,0.1142,0.1137,0.1112,0.1132,0.1139,0.1277,0.1116,0.1296,0.1303,0.1309,0.1553,0.1579,0.1601,0,0,0,0,0,0.1094,0.1137,0.1114,0.112,0.1155,0.1203,0.1209,0.1188,0.1163,0.1181,0.1158,0.1136,0.1179,0.1136,0.1144,0.1287,0.1293,0.1301,0.1308,0.1542,0.1574,0.16,0,0,0,0,0,0,0.1112,0.1134,0.1108,0.1153,0.1168,0.119,0.1233,0.1206,0.121,0.1197,0.1167,0.1163,0.1247,0.1211,0.1164,0.1356,0.1241,0.1251,0.1416,0.1446,0.147,0.1494,0.1119,0,0,0,0,0,0.1121,0.1146,0.1165,0.1192,0.1228,0.1231,0.1251,0.1224,0.1231,0.1228,0.1253,0.1261,0.1296,0.1314,0.1338,0.1435,0.1376,0.1532,0.1556,0.1577,0.1599,0.1636,0.1666,0.1338,0.1338,0.1338,0,0,0.1133,0.1147,0.1159,0.1196,0.1229,0.128,0.1235,0.1274,0.1327,0.1232,0.1351,0.1352,0.1334,0.1444,0.1482,0.1427,0.1629,0.1587,0.1606,0.1616,0.1648,0.168,0.1708,0.1344,0.1343,0.1342,0,0,0.1196,0.12,0.1259,0.1286,0.1323,0.1322,0.1336,0.139,0.1437,0.1512,0.1481,0.1552,0.1609,0.1654,0.1667,0.1838,0.1755,0.1852,0.2011,0.2048,0.2076,0.21,0.2023,0.2038,0.1869,0.1869,0.187,0,0.1206,0.1275,0.1282,0.1354,0.1397,0.1349,0.1429,0.1475,0.1523,0.1599,0.1569,0.1724,0.1726,0.1864,0.1928,0.1908,0.1852,0.1909,0.2083,0.2106,0.2126,0.2041,0.2055,0.1882,0.1881,0.188,0.1878,0,0.1316,0.1372,0.143,0.1488,0.153,0.1587,0.1642,0.1715,0.1759,0.1801,0.1978,0.2006,0.2081,0.2135,0.2085,0.2262,0.2147,0.211,0.2016,0.2175,0.2073,0.2083,0.1901,0.1897,0.1893,0.1889,0,0,0.1393,0.148,0.1518,0.1556,0.1608,0.1653,0.1781,0.1895,0.198,0.2093,0.2254,0.2387,0.2397,0.2413,0.2411,0.2476,0.2573,0.2367,0.2363,0.23,0.2566,0.2314,0.2297,0.2564,0.2569,0.2572,0.2422,0,0.1495,0.1623,0.1659,0.1777,0.1853,0.1874,0.1987,0.2066,0.2154,0.2294,0.2402,0.2519,0.2502,0.2551,0.2629,0.258,0.2616,0.2611,0.2411,0.2404,0.2172,0.2309,0.2169,0.201,0.243,0.2431,0.2432,0,0.1639,0.1697,0.1832,0.1922,0.1971,0.2025,0.2181,0.2265,0.2417,0.25,0.264,0.2674,0.2816,0.2765,0.2804,0.2789,0.2708,0.2666,0.2658,0.2346,0.2173,0.1927,0.2009,0.2446,0.2445,0.2444,0.2443,0,0.1713,0.1843,0.1938,0.1971,0.2054,0.2158,0.2212,0.2349,0.2441,0.2623,0.2673,0.2835,0.2877,0.2891,0.2781,0.2805,0.2743,0.2748,0.2442,0.2417,0.222,0.217,0.278,0.278,0.2781,0.2781,0.2782,0,0.1822,0.1901,0.1975,0.2036,0.2143,0.2211,0.2354,0.2437,0.2569,0.2637,0.2764,0.2815,0.2914,0.2871,0.2807,0.2603,0.2744,0.2485,0.2396,0.2292,0.2254,0.2574,0.2552,0.2775,0.2777,0.2778,0.2779,0,0.1879,0.192,0.2022,0.2147,0.2175,0.2257,0.2376,0.2466,0.2572,0.2663,0.2717,0.2804,0.2723,0.2704,0.2657,0.2561,0.2442,0.2318,0.2123,0.2016,0.2088,0.2082,0.2032,0.2023,0.2015,0.2008,0.2003,0,0.192,0.1967,0.2089,0.2133,0.2191,0.2298,0.2358,0.2466,0.2522,0.2608,0.2623,0.2608,0.2518,0.231,0.2186,0.1995,0.2133,0.174,0.1808,0.2111,0.2029,0.2035,0.2038,0.1627,0.1619,0.1612,0.1607,0,0.1966,0.1997,0.2073,0.2173,0.2243,0.2275,0.2359,0.2368,0.2452,0.2464,0.2383,0.2321,0.214,0.1891,0.1662,0.155,0.1783,0.1589,0.2003,0.1816,0.1711,0.1635,0.1657,0.1547,0.1553,0.1557,0.156,0.1563,0.1954,0.2028,0.2121,0.2191,0.2258,0.2223,0.218,0.22,0.2153,0.2063,0.2084,0.1873,0.1831,0.1374,0.1228,0.1118,0.1266,0.124,0.127,0.1306,0.1265,0.115,0.0866,0.0868,0.087,0.0871,0.0873,0,0.1947,0.2033,0.2122,0.2166,0.2178,0.2216,0.2151,0.2024,0.1854,0.1763,0.162,0.1316,0.1089,0.1028,0.0779,0.0699,0.0796,0.0651,0.084,0.0895,0.0945,0.0899,0.0396,0.0395,0.0394,0.0393,0,0,0.1942,0.1988,0.2045,0.2033,0.2074,0.1938,0.1832,0.1641,0.1502,0.1227,0.1061,0.1021,0.0998,0.072,0.0643,0.0501,0.0707,0.0443,0.0823,0.1104,0.1155,0.1265,0.1248,0,0,0,0,0]},{"header":{"parameterUnit":"m.s-1","parameterCategory":2,"la1":30.2991,"la2":30.254,"lo1":-89.0895,"lo2":-89.0444,"dy":0.0017,"dx":0.0017,"nx":28,"ny":28,"refTime":"2025-06-09T21:00:00:Z","depth":"2","parameterNumber":3,"parameterNumberName":"V-component_of_CURRENTS"},"data":[0,0,0,0,0,0,0,0,0,0,0,0,0,0,0,0,0,0,0,0,0,0,0,0,0,0,0,0,0,0,0,0,0,0,0,0,0,0,0,0,0,0,0,0,0,0,0,0,0,0,0,0,0,0,0,0,0,0,-0.0068,-0.0068,0,-0.0047,-0.0047,-0.0047,-0.003,-0.003,-0.0029,-0.0029,0.0149,0.0153,0.0158,0,0,0,0,0,0,0,0,0,0,0,0,0,-0.0092,-0.0091,-0.0068,-0.0068,-0.0068,-0.0047,-0.0047,-0.0047,-0.003,-0.003,-0.0029,-0.0029,0.0147,0.0153,0.0158,0,0,0,0,0,0,0,0,0,0,0,0,0,-0.0077,-0.0091,-0.0068,-0.0057,-0.0056,-0.0047,-0.0047,-0.0047,-0.003,-0.003,-0.0029,-0.0029,0.0145,0.0152,0.0159,0.0196,0,0,0.018,0.0183,0,0,0,0,0,0,0,0,-0.0078,-0.0076,-0.0059,-0.0058,-0.0056,-0.0041,0.001,0.0042,-0.003,-0.004,-0.0029,-0.0029,0.01,0.011,0.0111,0.0204,0.0212,0.018,0.0185,0.0188,0.019,0,0,0,0,0,0,0,-0.0079,-0.0077,-0.006,-0.0059,-0.0057,-0.0052,-0.005,0.0015,0.0031,-0.0039,-0.0038,-0.0035,0.0102,0.0105,0.0116,0.0214,0.018,0.0186,0.0191,0.0193,0.0415,0.0417,0,0,0,0,0,0,-0.0082,-0.0078,-0.0061,-0.0059,-0.0067,-0.0052,-0.0049,-0.0046,0.0027,0.0037,-0.0036,-0.0035,0.0093,0.0108,0.0123,0.0227,0.0188,0.0194,0.0198,0.0413,0.0416,0.0418,0,0,0,0,0,0,-0.0083,-0.0081,-0.0062,-0.0068,-0.0066,-0.0052,-0.0048,-0.0046,-0.0037,0.0028,0.0041,-0.0028,0.0094,0.0113,0.0172,0.0232,0.0197,0.0203,0.0411,0.0414,0.0417,0.0401,0,0,0,0,0,0,-0.0083,-0.0081,-0.0076,-0.0069,-0.0065,-0.0072,-0.0049,-0.0046,-0.0036,-0.0034,0.0039,0.0055,0.0095,0.0161,0.0178,0.0241,0.0209,0.0409,0.0413,0.0416,0.0399,0.0402,0.0405,0,0,0,0,0,-0.0084,-0.0076,-0.0076,-0.0074,-0.006,-0.0073,-0.0071,-0.006,-0.0036,-0.0047,0.0008,0.0053,0.0197,0.0166,0.0187,0.0253,0.0407,0.0412,0.0415,0.0397,0.0402,0.0405,0,0,0,0,0,0,-0.0083,-0.0073,-0.0073,-0.0063,-0.0077,-0.007,-0.0065,-0.0057,-0.0025,-0.0015,0.0057,0.0075,0.0154,0.02,0.0166,0.0328,0.0319,0.0327,0.0298,0.0303,0.0306,0.0374,0.0214,0,0,0,0,0,-0.0082,-0.0076,-0.0079,-0.0076,-0.0076,-0.0069,-0.0067,-0.0073,-0.0046,-0.0033,0.0027,0.0106,0.0187,0.0236,0.0295,0.0377,0.0397,0.044,0.0444,0.0446,0.0516,0.0564,0.0578,0.0431,0.0431,0.0431,0,0,-0.0081,-0.0076,-0.0072,-0.0076,-0.0074,-0.0087,-0.0067,-0.0078,-0.0049,-0.0012,0.0061,0.0108,0.0205,0.0289,0.0334,0.0338,0.0479,0.0451,0.0452,0.0523,0.057,0.0584,0.0597,0.0433,0.0433,0.0432,0,0,-0.0102,-0.0072,-0.0089,-0.0095,-0.011,-0.0099,-0.0102,-0.0096,-0.0045,-0.0004,0.0058,0.0147,0.0236,0.0343,0.0407,0.0474,0.0481,0.0482,0.0574,0.0617,0.0629,0.0641,0.0592,0.0601,0.0499,0.0499,0.0499,0,-0.0108,-0.0108,-0.0099,-0.0124,-0.009,-0.0103,-0.0096,-0.0067,-0.0038,0.0059,0.0016,0.0234,0.0286,0.048,0.0495,0.0492,0.047,0.0541,0.062,0.0633,0.0645,0.0594,0.0603,0.0498,0.0498,0.0498,0.0498,0,-0.016,-0.0143,-0.0146,-0.0159,-0.0136,-0.0133,-0.0087,-0.0035,0.0022,0.0075,0.0252,0.0316,0.0473,0.0487,0.0512,0.0667,0.0598,0.0596,0.0603,0.0659,0.06,0.0609,0.0498,0.0498,0.0498,0.0498,0,0,-0.0181,-0.018,-0.0174,-0.0131,-0.0128,-0.0095,-0.0016,0.0103,0.0223,0.0256,0.0443,0.0566,0.062,0.0701,0.0751,0.0798,0.0811,0.0735,0.0737,0.0675,0.0823,0.0764,0.0767,0.0795,0.0799,0.0802,0.0711,0,-0.0205,-0.0213,-0.0194,-0.0137,-0.01,-0.0024,0.0076,0.0183,0.0288,0.044,0.0577,0.0724,0.0696,0.078,0.0825,0.0844,0.0852,0.0833,0.0795,0.0794,0.0727,0.0785,0.072,0.0636,0.072,0.0722,0.0723,0,-0.0242,-0.0213,-0.0172,-0.0018,0.0013,0.005,0.0301,0.0375,0.0574,0.0668,0.0828,0.0896,0.1051,0.0974,0.1038,0.101,0.0934,0.0901,0.0896,0.0884,0.0759,0.0617,0.065,0.0739,0.0738,0.0736,0.0735,0,-0.0197,-0.0154,-0.0082,-0.0055,0.0059,0.0179,0.0276,0.0467,0.0609,0.0824,0.0917,0.1082,0.1169,0.115,0.108,0.1057,0.1067,0.1024,0.0891,0.0879,0.0855,0.0838,0.1047,0.1047,0.1048,0.1048,0.1048,0,-0.0178,-0.0123,-0.0049,0.0,0.0161,0.0241,0.0458,0.0578,0.0774,0.0933,0.1038,0.1166,0.1212,0.1217,0.1125,0.1038,0.1097,0.0947,0.0894,0.0834,0.0817,0.096,0.0951,0.1044,0.1045,0.1046,0.1046,0,-0.0155,-0.0146,-0.0035,0.0121,0.0176,0.0305,0.0528,0.0688,0.0833,0.1037,0.1109,0.1246,0.1247,0.1217,0.1175,0.1096,0.1019,0.0949,0.0834,0.0774,0.0774,0.0766,0.0832,0.083,0.0828,0.0827,0.0826,0,-0.0144,-0.0097,0.0063,0.0147,0.0219,0.0402,0.0541,0.0714,0.0861,0.1069,0.1161,0.1235,0.127,0.1174,0.1073,0.0922,0.093,0.0766,0.0768,0.0832,0.0772,0.0766,0.076,0.0665,0.0662,0.066,0.0659,0,-0.0072,-0.0031,0.0064,0.0239,0.0379,0.0536,0.0726,0.0826,0.1017,0.1132,0.1241,0.1272,0.12,0.107,0.0904,0.0797,0.0806,0.0722,0.0863,0.0743,0.0673,0.0614,0.0614,0.0642,0.0643,0.0645,0.0646,0.0646,-0.002,0.0072,0.0207,0.0376,0.0512,0.0668,0.0776,0.0928,0.1078,0.121,0.1225,0.1203,0.1121,0.0869,0.0742,0.0623,0.0662,0.0596,0.0603,0.0612,0.0624,0.0557,0.0499,0.05,0.0501,0.0501,0.0502,0,0.0112,0.0205,0.0358,0.053,0.0678,0.0737,0.0906,0.0971,0.1075,0.1139,0.1169,0.0994,0.0859,0.0746,0.0548,0.0463,0.0465,0.0417,0.0438,0.0454,0.0469,0.0476,0.031,0.031,0.031,0.0309,0,0,0.0181,0.0328,0.0417,0.0656,0.0767,0.0896,0.096,0.1006,0.1036,0.1037,0.099,0.0969,0.0838,0.0658,0.0536,0.0419,0.0458,0.0385,0.0539,0.0592,0.0608,0.056,0.0588,0,0,0,0,0]}],[{"header":{"parameterUnit":"m.s-1","parameterCategory":2,"la1":30.2991,"la2":30.254,"lo1":-89.0895,"lo2":-89.0444,"dy":0.0017,"dx":0.0017,"nx":28,"ny":28,"refTime":"2025-06-09T21:00:00:Z","depth":"4","parameterNumber":2,"parameterNumberName":"U-component_of_CURRENTS"},"data":[0,0,0,0,0,0,0,0,0,0,0,0,0,0,0,0,0,0,0,0,0,0,0,0,0,0,0,0,0,0,0,0,0,0,0,0,0,0,0,0,0,0,0,0,0,0,0,0,0,0,0,0,0,0,0,0,0,0,0.0254,0.0254,0,0.0238,0.0237,0.0237,0.0285,0.0287,0.0289,0.0291,0.0311,0.031,0.0309,0,0,0,0,0,0,0,0,0,0,0,0,0,0.0328,0.0326,0.0254,0.0254,0.0254,0.0238,0.0237,0.0237,0.0285,0.0287,0.0289,0.0291,0.0312,0.031,0.0309,0,0,0,0,0,0,0,0,0,0,0,0,0,0.0298,0.0326,0.0254,0.0279,0.0282,0.0238,0.0237,0.0237,0.0284,0.0287,0.029,0.0292,0.0312,0.031,0.0309,0.0242,0,0,0.0303,0.0302,0,0,0,0,0,0,0,0,0.03,0.0295,0.0276,0.0278,0.028,0.027,0.0272,0.0242,0.0284,0.0279,0.0291,0.0294,0.0302,0.0301,0.0285,0.0243,0.0244,0.0303,0.0302,0.0301,0.0301,0,0,0,0,0,0,0,0.0302,0.0296,0.0243,0.0276,0.0279,0.0293,0.0291,0.0266,0.0272,0.028,0.0284,0.0288,0.0303,0.0287,0.0286,0.0244,0.0303,0.0302,0.03,0.03,0.0377,0.038,0,0,0,0,0,0,0.0309,0.0297,0.0244,0.0243,0.0302,0.0289,0.0287,0.0267,0.0272,0.0276,0.0286,0.029,0.0288,0.0288,0.0287,0.033,0.0301,0.03,0.0299,0.0374,0.0377,0.0381,0,0,0,0,0,0,0.031,0.0303,0.0245,0.0276,0.027,0.0286,0.0262,0.0265,0.0272,0.0277,0.0282,0.0293,0.029,0.029,0.0304,0.0327,0.0299,0.0297,0.037,0.0375,0.0379,0.0338,0,0,0,0,0,0,0.0311,0.0303,0.0291,0.0275,0.0268,0.0183,0.026,0.0263,0.0271,0.0277,0.0283,0.0287,0.0293,0.0306,0.0302,0.0324,0.0296,0.0366,0.0372,0.0378,0.0335,0.034,0.0345,0,0,0,0,0,0.0314,0.0263,0.0289,0.0284,0.025,0.018,0.0174,0.0195,0.0269,0.0223,0.029,0.0288,0.0343,0.0305,0.03,0.0322,0.0363,0.037,0.0377,0.0333,0.0339,0.0345,0,0,0,0,0,0,0.0293,0.0263,0.0292,0.024,0.0206,0.0189,0.0153,0.0198,0.0211,0.023,0.0285,0.0289,0.0329,0.0335,0.0293,0.0377,0.0369,0.0375,0.0338,0.0343,0.0348,0.0416,0.0294,0,0,0,0,0,0.0284,0.024,0.0218,0.0179,0.0151,0.0165,0.0152,0.0155,0.0169,0.0178,0.0196,0.026,0.0346,0.0351,0.0381,0.0378,0.0416,0.0412,0.0417,0.042,0.0481,0.0583,0.0602,0.0404,0.0404,0.0403,0,0,0.0271,0.0251,0.023,0.0172,0.015,0.0118,0.0159,0.01,0.0142,0.0175,0.021,0.0254,0.0356,0.0388,0.0407,0.0391,0.0476,0.0429,0.043,0.0492,0.0592,0.0611,0.0628,0.0408,0.0407,0.0407,0,0,0.0185,0.0191,0.0108,0.0082,0.0033,0.0057,0.0049,0.0015,0.0059,0.0086,0.0181,0.0256,0.0294,0.0392,0.0465,0.0518,0.0508,0.0515,0.0567,0.0661,0.0678,0.0694,0.0659,0.0673,0.0503,0.0503,0.0503,0,0.0179,0.0106,0.0073,-0.0001,0.0033,0.0044,0.0021,0.0043,0.0038,0.0118,0.0095,0.0298,0.0336,0.0516,0.0549,0.053,0.0535,0.0517,0.0664,0.0681,0.0698,0.0661,0.0676,0.0502,0.0502,0.0502,0.0502,0,0.0016,0.0005,-0.0049,-0.0085,-0.0076,-0.0111,-0.0056,-0.0031,0.0057,0.0117,0.0263,0.0316,0.0474,0.0478,0.0536,0.0692,0.0633,0.0657,0.0634,0.0715,0.0669,0.0685,0.05,0.0501,0.0501,0.0501,0,0,-0.0088,-0.0139,-0.0152,-0.0102,-0.0093,-0.0089,-0.0002,0.0109,0.0224,0.0234,0.0393,0.0544,0.0583,0.0677,0.0721,0.0784,0.0855,0.0765,0.077,0.0702,0.0967,0.0801,0.0801,0.0887,0.0892,0.0897,0.0845,0,-0.0172,-0.0256,-0.0244,-0.02,-0.0189,-0.0073,0.0035,0.0147,0.0254,0.0363,0.0502,0.0624,0.0661,0.0715,0.081,0.085,0.0916,0.0862,0.0929,0.093,0.0753,0.0824,0.0914,0.0858,0.0862,0.0864,0.0866,0,-0.0328,-0.0317,-0.0313,-0.0137,-0.0122,-0.0058,0.0197,0.0273,0.0454,0.0528,0.0678,0.0737,0.0885,0.0877,0.1032,0.0982,0.1023,0.1022,0.102,0.0919,0.0801,0.0796,0.0896,0.0894,0.0892,0.089,0.0888,0,-0.0352,-0.0331,-0.0271,-0.0237,-0.0093,0.0033,0.0158,0.0347,0.045,0.0627,0.0672,0.0856,0.0922,0.1029,0.1064,0.1056,0.1157,0.1144,0.1032,0.1013,0.1189,0.1175,0.1315,0.1315,0.1315,0.1315,0.1315,0,-0.0395,-0.0359,-0.0257,-0.0224,-0.0058,0.0058,0.0242,0.0378,0.054,0.0632,0.0761,0.0817,0.0974,0.1032,0.1078,0.1075,0.1193,0.1074,0.1033,0.1155,0.1139,0.1192,0.1178,0.1313,0.1313,0.1314,0.1314,0,-0.0441,-0.0413,-0.0329,-0.0152,-0.008,0.0053,0.027,0.037,0.0523,0.0634,0.0681,0.0812,0.0867,0.0957,0.107,0.106,0.1081,0.1074,0.1117,0.1072,0.0851,0.0837,0.0922,0.0916,0.0912,0.0908,0.0905,0,-0.0469,-0.0446,-0.03,-0.0221,-0.0125,0.0063,0.0168,0.0357,0.0426,0.0599,0.0613,0.072,0.0794,0.0814,0.0902,0.0946,0.0978,0.0945,0.1007,0.0882,0.0833,0.0825,0.0817,0.0898,0.0896,0.0895,0.0894,0,-0.0479,-0.0456,-0.0386,-0.0249,-0.0118,0.0008,0.0165,0.0219,0.0395,0.0489,0.0581,0.064,0.0682,0.0744,0.0791,0.0831,0.0931,0.0899,0.091,0.0967,0.0853,0.0807,0.0805,0.0878,0.0881,0.0882,0.0883,0,-0.0488,-0.0446,-0.0383,-0.0232,-0.0127,-0.0029,0.0062,0.0173,0.0276,0.0462,0.046,0.0582,0.0675,0.0678,0.0702,0.0731,0.0739,0.0729,0.0749,0.0767,0.0741,0.0575,0.0511,0,0,0,0,0,-0.0456,-0.0427,-0.0347,-0.0204,-0.0131,-0.005,0.0058,0.0128,0.0255,0.0311,0.042,0.0469,0.054,0.0564,0.0569,0.0578,0.0706,0.0569,0.0697,0.0792,0.081,0.0794,0,0,0,0,0,0,-0.0435,-0.0402,-0.0365,-0.0238,-0.0136,-0.0047,0.0027,0.0108,0.0151,0.0282,0.033,0.0406,0.0478,0.0566,0.0561,0.0565,0.0622,0.0628,0.0624,0.0781,0.0798,0.0812,0.0803,0,0,0,0,0]},{"header":{"parameterUnit":"m.s-1","parameterCategory":2,"la1":30.2991,"la2":30.254,"lo1":-89.0895,"lo2":-89.0444,"dy":0.0017,"dx":0.0017,"nx":28,"ny":28,"refTime":"2025-06-09T21:00:00:Z","depth":"4","parameterNumber":3,"parameterNumberName":"V-component_of_CURRENTS"},"data":[0,0,0,0,0,0,0,0,0,0,0,0,0,0,0,0,0,0,0,0,0,0,0,0,0,0,0,0,0,0,0,0,0,0,0,0,0,0,0,0,0,0,0,0,0,0,0,0,0,0,0,0,0,0,0,0,0,0,-0.023,-0.023,0,-0.021,-0.021,-0.021,-0.0239,-0.024,-0.0241,-0.0242,-0.0207,-0.0205,-0.0203,0,0,0,0,0,0,0,0,0,0,0,0,0,-0.0236,-0.0236,-0.023,-0.023,-0.0229,-0.021,-0.021,-0.021,-0.0239,-0.024,-0.0241,-0.0242,-0.0207,-0.0205,-0.0203,0,0,0,0,0,0,0,0,0,0,0,0,0,-0.0228,-0.0237,-0.023,-0.024,-0.0241,-0.021,-0.021,-0.021,-0.0239,-0.024,-0.0241,-0.0243,-0.0208,-0.0205,-0.0203,-0.0161,0,0,-0.0195,-0.0194,0,0,0,0,0,0,0,0,-0.0229,-0.0229,-0.0239,-0.024,-0.024,-0.0227,-0.0199,-0.0192,-0.0239,-0.0242,-0.0242,-0.0243,-0.021,-0.0207,-0.0203,-0.0159,-0.0158,-0.0195,-0.0193,-0.0192,-0.0191,0,0,0,0,0,0,0,-0.023,-0.0229,-0.0224,-0.0239,-0.0239,-0.0226,-0.0227,-0.0198,-0.022,-0.0241,-0.0243,-0.0237,-0.021,-0.0206,-0.0203,-0.0157,-0.0195,-0.0192,-0.0191,-0.019,-0.0076,-0.0074,0,0,0,0,0,0,-0.023,-0.023,-0.0225,-0.0223,-0.0235,-0.0225,-0.0226,-0.0231,-0.0221,-0.022,-0.0236,-0.0239,-0.021,-0.0206,-0.0201,-0.0162,-0.0192,-0.0189,-0.0188,-0.0077,-0.0075,-0.0074,0,0,0,0,0,0,-0.023,-0.023,-0.0226,-0.0224,-0.0222,-0.0224,-0.0229,-0.023,-0.023,-0.0217,-0.0216,-0.0235,-0.0211,-0.0205,-0.0192,-0.0161,-0.0188,-0.0186,-0.0079,-0.0077,-0.0075,-0.0076,0,0,0,0,0,0,-0.0231,-0.0231,-0.0233,-0.0224,-0.0222,-0.0176,-0.0228,-0.0229,-0.0223,-0.0227,-0.0215,-0.0213,-0.0211,-0.0196,-0.019,-0.0158,-0.0184,-0.0081,-0.0078,-0.0075,-0.0078,-0.0074,-0.0071,0,0,0,0,0,-0.0231,-0.0207,-0.0233,-0.0232,-0.0227,-0.0174,-0.017,-0.0177,-0.0222,-0.019,-0.0222,-0.0214,-0.0173,-0.0194,-0.0186,-0.0153,-0.0082,-0.0079,-0.0075,-0.008,-0.0075,-0.0071,0,0,0,0,0,0,-0.0212,-0.0208,-0.0236,-0.0217,-0.019,-0.0177,-0.0147,-0.0174,-0.0175,-0.0186,-0.0207,-0.0205,-0.0184,-0.0162,-0.0185,-0.0109,-0.012,-0.0115,-0.0125,-0.0121,-0.0117,-0.0107,-0.0182,0,0,0,0,0,-0.0211,-0.0196,-0.0187,-0.0171,-0.0151,-0.0159,-0.0145,-0.0148,-0.0148,-0.015,-0.0148,-0.015,-0.0159,-0.014,-0.0127,-0.0081,-0.0074,-0.0048,-0.0045,-0.0042,-0.0026,0.0003,0.001,-0.0063,-0.0063,-0.0063,0,0,-0.0207,-0.0197,-0.0195,-0.0166,-0.015,-0.0094,-0.0152,-0.0108,-0.0088,-0.0143,-0.011,-0.014,-0.015,-0.0118,-0.0101,-0.0095,-0.0022,-0.0038,-0.0036,-0.0022,0.0007,0.0014,0.0021,-0.0061,-0.0061,-0.0061,0,0,-0.0139,-0.0169,-0.0113,-0.0081,-0.004,-0.0041,-0.003,-0.0007,-0.0021,0.0003,-0.0058,-0.0082,-0.0039,-0.0065,-0.0075,-0.0037,-0.002,-0.001,0.0032,0.006,0.0066,0.0072,0.0061,0.0065,0.0009,0.0009,0.0009,0,-0.0134,-0.0071,-0.0085,-0.0005,0.0017,-0.0015,0.0053,0.0049,0.0063,0.0035,0.0031,-0.0011,-0.0018,-0.005,-0.0035,-0.003,-0.0015,0.0007,0.0063,0.0068,0.0074,0.0062,0.0067,0.0009,0.0009,0.0009,0.0009,0,-0.0005,0.0038,0.0085,0.0151,0.0174,0.0236,0.0224,0.0227,0.0189,0.0162,0.0123,0.0084,0.0062,0.0052,0.0024,0.0046,0.0041,0.0044,0.0045,0.0081,0.0066,0.0071,0.001,0.001,0.0009,0.0009,0,0,0.0017,0.0147,0.016,0.0195,0.0256,0.0277,0.0304,0.0297,0.0262,0.0262,0.022,0.0184,0.0135,0.0122,0.007,0.0088,0.012,0.0103,0.0104,0.0079,0.017,0.013,0.0132,0.0146,0.0148,0.0149,0.0133,0,0.012,0.0272,0.0306,0.0404,0.0464,0.0432,0.0445,0.0414,0.0364,0.0325,0.0237,0.0206,0.017,0.0149,0.0157,0.011,0.0141,0.0123,0.0153,0.0153,0.0103,0.0139,0.0154,0.0137,0.0138,0.0139,0.0139,0,0.0233,0.0311,0.0452,0.0484,0.0504,0.0565,0.0513,0.0522,0.0442,0.0401,0.0341,0.0269,0.0232,0.0229,0.0201,0.0198,0.0214,0.0189,0.0188,0.0162,0.0124,0.0104,0.0148,0.0148,0.0147,0.0146,0.0146,0,0.0234,0.0379,0.048,0.0515,0.0582,0.061,0.0619,0.0557,0.0526,0.0466,0.0432,0.0354,0.0329,0.0324,0.0269,0.0261,0.025,0.023,0.02,0.0195,0.0233,0.0228,0.0278,0.0278,0.0278,0.0278,0.0278,0,0.0298,0.0369,0.0508,0.0564,0.0626,0.0655,0.0674,0.0646,0.0612,0.0555,0.0496,0.0421,0.0371,0.0324,0.0295,0.0249,0.0285,0.0216,0.0203,0.0228,0.0223,0.0234,0.0229,0.0277,0.0277,0.0277,0.0277,0,0.028,0.0395,0.0502,0.0614,0.0651,0.0692,0.074,0.0712,0.0708,0.0639,0.0634,0.0512,0.0441,0.0372,0.0334,0.0284,0.0244,0.0243,0.0254,0.024,0.0155,0.0151,0.0183,0.0182,0.018,0.018,0.0179,0,0.0288,0.0361,0.0518,0.0585,0.0665,0.0738,0.0754,0.0766,0.0706,0.0652,0.0578,0.0534,0.0442,0.0351,0.0288,0.0236,0.0241,0.0218,0.0205,0.0169,0.0153,0.015,0.0147,0.0177,0.0177,0.0177,0.0176,0,0.0265,0.0345,0.0416,0.0565,0.0649,0.0691,0.071,0.0697,0.0659,0.0657,0.0552,0.0496,0.0406,0.0314,0.0307,0.0256,0.0213,0.0207,0.0209,0.0195,0.0162,0.0147,0.0145,0.0173,0.0173,0.0174,0.0174,0,0.0223,0.026,0.0377,0.0505,0.0597,0.063,0.0658,0.0617,0.06,0.0544,0.05,0.0448,0.0409,0.0323,0.028,0.0256,0.0231,0.0209,0.0209,0.0213,0.022,0.0182,0.0201,0,0,0,0,0,0.0182,0.0219,0.0303,0.0444,0.0536,0.0595,0.0591,0.0595,0.0572,0.0506,0.0522,0.0442,0.038,0.0314,0.0288,0.0234,0.0211,0.0194,0.0184,0.0153,0.0157,0.0157,0,0,0,0,0,0,0.0146,0.0209,0.0263,0.037,0.0464,0.0528,0.0544,0.0538,0.0477,0.0474,0.0435,0.0428,0.0356,0.0432,0.0296,0.0278,0.0259,0.0166,0.0164,0.0151,0.0154,0.0158,0.0159,0,0,0,0,0]}]]